Flight Information

DEPARTURE
SANTA BARBARA, CA
Elevation:
13
Runways:
7/25 - 6052x150 - ASPH-G
15R/33L - 4184x100 - ASPH-G
15L/33R - 4180x75 - ASPH-G
ATIS:
132.65
Clearance Delivery:
132.9
Ground:
121.7
Tower:
119.7
DESTINATION
,
Elevation:
TPA:
1000 (est.)


6853.7 NM72° True-14° Var58° HDG

Flight Plan:
(click to file on line)

1. Type
2. Aircraft Identification
3. Aircraft Type / Special Equipment
4. True Airspeed
kts
5. Departure Airport
(ICAO code)
6. Arriving Airport
(ICAO code)
7. Cruising Altitude
ft
8. Alternate Airport
(ICAO code)
9. Route of Flight
10. Remarks


00:00:00 Departure ATIS: Destination ATIS:

Clearance Limit:
Route:
Altitude: Expect in minutes
Frequency:
Transponder: (7500 Hijack / 7600 Lost Comms / 7700 Emergency)


KSBA 030253Z 07005KT 4SM BR BKN009 OVC018 14/13 A3009 RMK AO2 SLP187 60000 T01440128 53005 $
Time: 2022-12-03T02:53:00Z
1670646332
Winds: 70 @ 5 kts
Visibility: 4.0 sm
Clouds (AGL): BKN 900
OVC 1800
Temperature: 14.4 C
Dew Point: 12.8 C
Pressure: 30.088583 in Hgbr


Notes:

Data extracted from FAA Digital Chart Supplement. Effective: 0901Z Thursday, 27 JAN 2022 to 0900z Thursday, 24 MAR 2022
Current ATIS data is provided courtisy of PilotEdge.